Miscellaneous Local Product
Issued by NWS Hastings, NE

Home | Current Version | Previous Version | Text Only | Print | Product List | Glossary Off
Versions: 1 2 3 4 5 6 7 8 9 10 11 12 13 14 15 16 17 18 19 20 21 22 23 24 25 26 27 28 29 30 31 32 33 34 35 36 37 38 39 40 41 42 43 44 45 46 47 48 49 50

000
AXUS43 KGID 200702
MISGRI

GID CWA HOURLY WEATHER ROUNDUP
NATIONAL WEATHER SERVICE HASTINGS NE
200 AM CDT SUN APR 20 2014

NOTE: "FAIR" INDICATES FEW OR NO CLOUDS BELOW 12,000 FEET WITH NO
SIGNIFICANT WEATHER AND/OR OBSTRUCTIONS TO VISIBILITY.

...SOUTH CENTRAL NEBRASKA...

CITY           SKY/WX    TMP DP  RH WIND       PRES   REMARKS
GRAND ISLAND   MOCLDY    58  50  75 S6        29.95S
HASTINGS       CLOUDY    62  48  60 SW6       29.95S
KEARNEY        CLOUDY    57  48  72 N8        29.96F
ORD            CLEAR     52  39  61 N3        29.97S
YORK           PTCLDY    63  48  59 S14       29.95F
AURORA         PTCLDY    61  49  64 S9        29.95S
LEXINGTON      MOCLDY    55  47  76 N12       29.96F
HOLDREGE       CLOUDY    57  50  76 CALM      29.98R
HEBRON         PTCLDY    64  49  58 S13       29.98R

...NEBRASKA PANHANDLE...

CITY           SKY/WX    TMP DP  RH WIND       PRES   REMARKS
CHADRON        CLEAR     46  35  65 SE5       29.97F
ALLIANCE       CLEAR     40  32  73 S8        30.02R WCI  34
SCOTTSBLUFF    PTCLDY    46  34  62 E8        30.02S
SIDNEY         PTCLDY    45  35  68 SW12      30.04F

...WESTERN AND NORTH CENTRAL NEBRASKA...

CITY           SKY/WX    TMP DP  RH WIND       PRES   REMARKS
VALENTINE      CLEAR     35  23  61 SW5       30.02S WCI  31
AINSWORTH      CLEAR     45  29  52 CALM      30.03R
ONEILL         PTCLDY    50  31  48 NE7       30.00S
BROKEN BOW     MOCLDY    50  39  66 CALM      29.99S
IMPERIAL       PTCLDY    47  42  83 N5        30.01S
NORTH PLATTE   PTCLDY    43  39  86 NW9       30.01S
MCCOOK         PTCLDY    53  50  89 E3        29.99R

...EASTERN NEBRASKA...

CITY           SKY/WX    TMP DP  RH WIND       PRES   REMARKS
NORFOLK        PTCLDY    56  44  64 CALM      29.96F
SO SIOUX CITY  PTCLDY    56  45  66 CALM      29.98S
TEKAMAH        MOCLDY    64  44  48 S10       29.97S
COLUMBUS       PTCLDY    61  45  55 S7        29.97S
ALBION         PTCLDY    56  42  58 NE13      29.96S
OMAHA EPPLEY   MOCLDY    65  44  46 S16       29.99S
OFFUTT AFB     PTCLDY    63  46  53 SE12      30.00S
MILLARD        PTCLDY    65  44  45 SE8       30.00R
LINCOLN        PTCLDY    66  45  46 S16       29.98R
NEBRASKA CITY  PTCLDY    65  44  46 S23       30.01S
BEATRICE       PTCLDY    64  45  50 S13       30.00S
FALLS CITY     PTCLDY    63  45  51 S12       30.04S

...NORTHERN KANSAS...

CITY           SKY/WX    TMP DP  RH WIND       PRES   REMARKS
GOODLAND       PTCLDY    47  45  93 E8        30.01S
HILL CITY      CLOUDY    59  51  75 CALM      29.98R
PHILLIPSBURG   CLEAR     57  50  77 CALM      29.97R
SMITH CENTER   CLEAR     59  48  67 SE5       29.97S
BELOIT         CLEAR     63  50  63 SE9       29.98F
HAYS           MOCLDY    61  46  59 SW6       30.00R
RUSSELL        MOCLDY    63  49  60 S18       29.98R
CONCORDIA      MOCLDY    64  49  57 S18G26    29.99R
SALINA         MOCLDY    64  48  56 S12       30.02R
TOPEKA         CLEAR     65  46  50 S13       30.07S



USA.gov is the U.S. government's official web portal to all federal, state and local government web resources and services.